Location: Congrier
(47.8099°N, 1.1170°W)
Time: 10:10:44
(UTC+00:00)

Cosmos 1980 Rocket - Pass Details

Date: 28 January 2023
Orbit: 828 x 851 km, 71.0° (Epoch: 23 March)

Event Time Altitude Azimuth Distance (km) Brightness Sun altitude
Rises 18:31:44 0° 212° (SSW) 3,375 6.0 -15.7°
Reaches altitude 10° 18:34:10 10° 214° (SW) 2,448 5.2 -16.1°
Maximum altitude 18:39:47 73° 299° (WNW) 882 2.4 -17.0°
Drops below altitude 10° 18:45:29 10° 25° (NNE) 2,479 4.3 -18.0°
Enters shadow 18:45:44 - 25° (NNE) 2,569 4.4 -18.0°
